Location: Aalen
(48.8330°N, 10.1000°E)
Time: 17:26:33
(UTC+02:00)

Transit 4A - Pass Details

Date: 10 August 2021
Orbit: 871 x 974 km, 66.8° (Epoch: 16 September)

Event Time Altitude Azimuth Distance (km) Brightness Sun altitude
Rises 09:06:41 0° 316° (NW) 3,486 10.5 28.2°
Reaches altitude 10° 09:09:37 10° 302° (WNW) 2,554 9.8 28.7°
Maximum altitude 09:14:09 23° 252° (WSW) 1,792 9.2 29.4°
Drops below altitude 10° 09:18:45 10° 201° (SSW) 2,588 10.2 30.2°
Sets 09:21:45 0° 188° (S) 3,544 11.0 30.7°
